Showing default

SHIYAN 27B, 63600

Orbit data source: Space-Track

SHIYAN 27B, 63600 is a payload satellite owned by CAST (CN) in SSO that was launched on Fri, 18 Apr 2025 UTC via a CHANG ZHENG 6A launch vehicle from the Taiyaun Space Center, China (TSC). Payload-class satellites include a variety of spacecraft equipped with specific instruments for various scientific and technological missions. These include communications satellites like Starlink; space stations such as the ISS; scientific satellites like the Hubble; Earth observation satellites from companies like Planet Labs, Umbra, and HawkEye 360; GPS; miniature CubeSats for education and research; and military/defense satellites.

Loading next visibility...
Identifier
63600, 2025-078B
Orbit
SSO
Country
Flag of CNCN / PRC
Related business
Manufacturer
CAST
Mission
Operational Defense Radar Imaging
Bus & Motor
SW27, Unknown motor
Mass
300 kg wet, ~300 kg dry
Launch date (UTC)
2025-04-18 (5 months ago)
Launch vehicle
CHANG ZHENG 6A
Launch site
Taiyaun Space Center, China (TSC)
Object type
Payload
Rocket body
Debris
Shape & HBR
Box + 1 Pan, 5.0 m
Radar Cross Section
13.200 m², Large (>1 m²)

Expand to show TLE details & history
Last TLE update: 17 hours ago

TLE from 17 hours ago
0 SHIYAN 27B
1 63600U 25078B   25259.64446865  .00000010  00000-0  76509-4 0  9995
2 63600  99.6953 265.9196 0000884  79.3896 280.7342 13.57213129 20426
Epoch: 2025-09-16T15:28Z
TLE epoch observation values (Epoch: 2025-09-16T15:28:02.091Z)
Latitude
-0°
Longitude
38.07908°
Altitude
1,048.511 km
Speed
7.328 km/s
True Right ascension
17h 43m 40s
True Declination
0° 00' 00"
Sunlit
Object was in daylight at epoch
Visualization orbit readout
Latitude
Unknown
Longitude
Unknown
Altitude
Unknown
Speed
Unknown
Apparent Right ascension
Unknown
Apparent Declination
Unknown
Sunlit
N/A
Visualization observer readout
Local Sidereal Time
01:02:18
Azimuth
Unknown
Elevation
Unknown
Doppler factor
Unknown
Orbital elements
Apogee altitude
1,043.785 km
Perigee altitude
1,042.473 km
Semi-major axis
7,421.266 km
Eccentricity
0.00009
Inclination
99.6953°
RAAN
265.9196°
Arg. of periapsis
79.3896°
True anomaly
280.72425°
Mean anomaly
280.7342°
Eccentric anomaly
280.72922°
Mean motion
3.39489 °/min
Orbital period
106.04 mins
BSTAR
0.000076509
Loading maneuver chart data...
Computing Atmospheric mass density...
Loading historical data...
Loading historical data...
Loading historical data...
Loading historical data...
Loading historical data...
Loading historical data...
Loading historical data...

Documentation

Showing up to 5 results
|